[[{"header":{"parameterUnit":"m.s-1","parameterCategory":1,"la1":30.2991,"la2":30.254,"lo1":-89.0895,"lo2":-89.0444,"dy":0.0017,"dx":0.0017,"nx":28,"ny":28,"refTime":"2025-06-03T09:00:00:Z","depth":0,"parameterNumber":2,"parameterNumberName":"U-component_of_WINDS"},"data":[0,0,0,0,0,0,0,0,0,0,0,0,0,0,0,0,0,0,0,0,0,0,0,0,0,0,0,0,0,0,0,0,0,0,0,0,0,0,0,0,0,0,0,0,0,0,0,0,0,0,0,0,0,0,0,0,0,0,-4.4795,-4.4795,0,-4.4793,-4.4793,-4.4793,-4.4714,-4.4712,-4.471,-4.4708,-4.4707,-4.4708,-4.471,0,0,0,0,0,0,0,0,0,0,0,0,0,-4.4735,-4.4737,-4.4795,-4.4795,-4.4795,-4.4793,-4.4793,-4.4793,-4.4714,-4.4712,-4.4709,-4.4707,-4.4706,-4.4708,-4.471,0,0,0,0,0,0,0,0,0,0,0,0,0,-4.475,-4.4737,-4.4795,-4.4756,-4.4752,-4.4793,-4.4793,-4.4793,-4.4715,-4.4712,-4.4708,-4.4706,-4.4705,-4.4708,-4.4711,-4.4789,0,0,-4.4719,-4.472,0,0,0,0,0,0,0,0,-4.4749,-4.4752,-4.4761,-4.4758,-4.4754,-4.475,-4.4771,-4.4792,-4.4715,-4.4729,-4.4708,-4.4704,-4.4724,-4.4725,-4.4731,-4.4789,-4.4789,-4.472,-4.4721,-4.4722,-4.4723,0,0,0,0,0,0,0,-4.4748,-4.4752,-4.4794,-4.4762,-4.4757,-4.4739,-4.4738,-4.4774,-4.4744,-4.4727,-4.4722,-4.4722,-4.4721,-4.4729,-4.473,-4.4789,-4.4719,-4.4722,-4.4724,-4.4725,-4.4913,-4.4916,0,0,0,0,0,0,-4.4752,-4.4751,-4.4794,-4.4794,-4.4744,-4.4743,-4.4741,-4.4755,-4.4743,-4.4738,-4.4725,-4.4719,-4.4725,-4.4727,-4.473,-4.4821,-4.4722,-4.4725,-4.4727,-4.491,-4.4914,-4.4918,0,0,0,0,0,0,-4.4751,-4.4757,-4.4794,-4.4771,-4.4775,-4.4747,-4.4763,-4.4756,-4.4763,-4.4741,-4.4735,-4.4738,-4.4723,-4.4726,-4.4775,-4.482,-4.4726,-4.4729,-4.4906,-4.4911,-4.4916,-4.5004,0,0,0,0,0,0,-4.475,-4.4757,-4.4785,-4.4772,-4.4776,-4.4839,-4.4766,-4.4759,-4.4768,-4.476,-4.4752,-4.4747,-4.4721,-4.4772,-4.4778,-4.4822,-4.4731,-4.4902,-4.4908,-4.4914,-4.4997,-4.5011,-4.5024,0,0,0,0,0,-4.4748,-4.481,-4.4787,-4.4793,-4.4811,-4.4841,-4.4844,-4.4811,-4.4772,-4.4801,-4.4787,-4.4748,-4.4815,-4.4777,-4.4784,-4.4829,-4.4899,-4.4907,-4.4914,-4.4991,-4.5009,-4.5023,0,0,0,0,0,0,-4.4829,-4.4808,-4.4782,-4.4842,-4.4844,-4.4828,-4.4863,-4.4831,-4.4844,-4.4836,-4.4796,-4.4795,-4.4851,-4.4845,-4.4804,-4.4906,-4.485,-4.4859,-4.4906,-4.4923,-4.4936,-4.4935,-4.4733,0,0,0,0,0,-4.4854,-4.488,-4.486,-4.4915,-4.4918,-4.4891,-4.4903,-4.4878,-4.4879,-4.4879,-4.4869,-4.4872,-4.4894,-4.4908,-4.4927,-4.4997,-4.4994,-4.5032,-4.5046,-4.5057,-4.5064,-4.5101,-4.5118,-4.4942,-4.4942,-4.4942,0,0,-4.4905,-4.4897,-4.4916,-4.4931,-4.493,-4.4958,-4.4892,-4.4924,-4.4945,-4.4884,-4.4929,-4.4923,-4.4924,-4.4984,-4.501,-4.4981,-4.5113,-4.5066,-4.5075,-4.5077,-4.5111,-4.5127,-4.5142,-4.4947,-4.4946,-4.4946,0,0,-4.5013,-4.501,-4.5055,-4.5056,-4.5055,-4.5037,-4.5049,-4.5038,-4.5031,-4.5076,-4.5032,-4.5057,-4.5095,-4.5098,-4.5104,-4.5217,-4.5181,-4.5225,-4.5293,-4.533,-4.5344,-4.5356,-4.5395,-4.541,-4.5233,-4.5233,-4.5233,0,-4.5076,-4.5116,-4.5082,-4.5118,-4.5126,-4.5074,-4.512,-4.5123,-4.5129,-4.5136,-4.5105,-4.5153,-4.515,-4.521,-4.5238,-4.5245,-4.5257,-4.5223,-4.5344,-4.5356,-4.5367,-4.5404,-4.5419,-4.5238,-4.5238,-4.5237,-4.5237,0,-4.5194,-4.5223,-4.526,-4.5267,-4.528,-4.5321,-4.5295,-4.5312,-4.5288,-4.5274,-4.5322,-4.5317,-4.5334,-4.5348,-4.5324,-4.5405,-4.5387,-4.5351,-4.5294,-4.5389,-4.5423,-4.5437,-4.5246,-4.5244,-4.5242,-4.5241,0,0,-4.5348,-4.5339,-4.5352,-4.5355,-4.5353,-4.5374,-4.5415,-4.5431,-4.5447,-4.5455,-4.5487,-4.5522,-4.5489,-4.5497,-4.5474,-4.5506,-4.5595,-4.5466,-4.5465,-4.5488,-4.5684,-4.571,-4.5726,-4.5573,-4.5576,-4.5578,-4.5683,0,-4.5451,-4.5516,-4.5489,-4.5557,-4.5584,-4.5537,-4.5572,-4.5575,-4.5564,-4.5586,-4.5575,-4.56,-4.5555,-4.5559,-4.5589,-4.5578,-4.5634,-4.557,-4.5602,-4.5604,-4.56,-4.5744,-4.5771,-4.5871,-4.5697,-4.5699,-4.5701,0,-4.5578,-4.5591,-4.5662,-4.5656,-4.5666,-4.5697,-4.5711,-4.5733,-4.5736,-4.5727,-4.5737,-4.5707,-4.5747,-4.5693,-4.5748,-4.5705,-4.5718,-4.5715,-4.5718,-4.5717,-4.5656,-4.5746,-4.5902,-4.5916,-4.5721,-4.572,-4.5718,0,-4.5682,-4.5717,-4.5764,-4.5768,-4.5763,-4.5786,-4.5785,-4.5785,-4.5798,-4.5812,-4.5819,-4.5838,-4.5847,-4.5863,-4.584,-4.5802,-4.5898,-4.5841,-4.589,-4.5891,-4.5909,-4.5908,-4.6068,-4.5922,-4.5922,-4.5922,-4.5921,0,-4.5797,-4.5842,-4.581,-4.5839,-4.5889,-4.5858,-4.5909,-4.5903,-4.5904,-4.5932,-4.5894,-4.5921,-4.589,-4.5914,-4.5897,-4.5945,-4.595,-4.5943,-4.5938,-4.5945,-4.5946,-4.595,-4.5942,-4.5926,-4.5925,-4.5924,-4.5923,0,-4.5919,-4.59,-4.5948,-4.594,-4.5939,-4.5976,-4.5969,-4.5996,-4.5985,-4.602,-4.6027,-4.6009,-4.6036,-4.6015,-4.6042,-4.6031,-4.6094,-4.6079,-4.6092,-4.6087,-4.6136,-4.6131,-4.6302,-4.6323,-4.6166,-4.6168,-4.6169,0,-4.5993,-4.6026,-4.6022,-4.6038,-4.6039,-4.6065,-4.6078,-4.6051,-4.6066,-4.6074,-4.6101,-4.6125,-4.6142,-4.6188,-4.6178,-4.6199,-4.6184,-4.6242,-4.6186,-4.6193,-4.6183,-4.618,-4.6183,-4.6253,-4.6254,-4.6256,-4.6257,0,-4.6125,-4.6114,-4.6134,-4.6152,-4.6168,-4.6181,-4.619,-4.6206,-4.6178,-4.6198,-4.6225,-4.6239,-4.6267,-4.6292,-4.6309,-4.6309,-4.6279,-4.6276,-4.6288,-4.6294,-4.6299,-4.6296,-4.612,-4.6271,-4.6269,-4.6268,-4.6268,-4.6267,-4.6224,-4.6251,-4.6253,-4.6277,-4.6282,-4.6292,-4.6317,-4.631,-4.6332,-4.6352,-4.6336,-4.6369,-4.6374,-4.6394,-4.6399,-4.6425,-4.6401,-4.6418,-4.6423,-4.6427,-4.6433,-4.6298,-4.6428,-4.6428,-4.6427,-4.6427,-4.6427,0,-4.6352,-4.6352,-4.6375,-4.6389,-4.6409,-4.638,-4.639,-4.6408,-4.6437,-4.6444,-4.6463,-4.6495,-4.652,-4.6513,-4.6535,-4.6557,-4.6544,-4.6564,-4.656,-4.6561,-4.6454,-4.644,-4.6574,-4.6574,-4.6574,-4.6574,-4.6574,-4.6574,-4.6421,-4.6467,-4.6457,-4.6506,-4.6505,-4.6537,-4.6545,-4.6555,-4.656,-4.6598,-4.6618,-4.6614,-4.6616,-4.6638,-4.666,-4.6657,-4.6667,-4.6691,-4.6684,-4.6583,-4.6568,-4.6554,-4.6541,-4.6694,-4.6694,-4.6788,-4.6789,-4.6789]},{"header":{"parameterUnit":"m.s-1","parameterCategory":1,"la1":30.2991,"la2":30.254,"lo1":-89.0895,"lo2":-89.0444,"dy":0.0017,"dx":0.0017,"nx":28,"ny":28,"refTime":"2025-06-03T09:00:00:Z","depth":0,"parameterNumber":3,"parameterNumberName":"V-component_of_WINDS"},"data":[0,0,0,0,0,0,0,0,0,0,0,0,0,0,0,0,0,0,0,0,0,0,0,0,0,0,0,0,0,0,0,0,0,0,0,0,0,0,0,0,0,0,0,0,0,0,0,0,0,0,0,0,0,0,0,0,0,0,2.5033,2.5033,0,2.5039,2.5039,2.5039,2.5061,2.5062,2.5062,2.5063,2.5064,2.5063,2.5063,0,0,0,0,0,0,0,0,0,0,0,0,0,2.5037,2.5036,2.5033,2.5033,2.5033,2.5039,2.5039,2.5039,2.5061,2.5062,2.5062,2.5063,2.5064,2.5063,2.5063,0,0,0,0,0,0,0,0,0,0,0,0,0,2.5038,2.5036,2.5033,2.5045,2.5046,2.5039,2.5039,2.5039,2.5061,2.5062,2.5062,2.5063,2.5064,2.5063,2.5063,2.5043,0,0,2.5061,2.506,0,0,0,0,0,0,0,0,2.5038,2.5038,2.5043,2.5044,2.5045,2.505,2.5041,2.504,2.5061,2.5055,2.5063,2.5064,2.5058,2.5058,2.5057,2.5043,2.5043,2.5061,2.506,2.506,2.506,0,0,0,0,0,0,0,2.5038,2.5038,2.5035,2.5043,2.5044,2.5049,2.505,2.5041,2.5052,2.5056,2.5057,2.5058,2.5059,2.5058,2.5058,2.5043,2.5061,2.506,2.506,2.5059,2.5013,2.5013,0,0,0,0,0,0,2.5036,2.5037,2.5035,2.5035,2.5044,2.5048,2.5049,2.5048,2.5052,2.5054,2.5057,2.5059,2.5059,2.5058,2.5058,2.5035,2.506,2.5059,2.5059,2.5014,2.5013,2.5012,0,0,0,0,0,0,2.5036,2.5036,2.5034,2.5037,2.5037,2.5047,2.5045,2.5047,2.5046,2.5054,2.5055,2.5054,2.5059,2.5059,2.5047,2.5035,2.5059,2.5058,2.5015,2.5014,2.5013,2.499,0,0,0,0,0,0,2.5037,2.5036,2.5029,2.5036,2.5037,2.5025,2.5045,2.5047,2.5046,2.5048,2.5051,2.5052,2.506,2.5048,2.5046,2.5035,2.5058,2.5016,2.5015,2.5013,2.4991,2.4988,2.4985,0,0,0,0,0,2.5037,2.5021,2.5029,2.5028,2.5029,2.5024,2.5024,2.5034,2.5045,2.5038,2.5042,2.5052,2.5037,2.5047,2.5045,2.5033,2.5017,2.5015,2.5013,2.4993,2.4988,2.4985,0,0,0,0,0,0,2.5009,2.5022,2.5031,2.5017,2.502,2.5028,2.5019,2.5029,2.5027,2.5029,2.504,2.5041,2.5028,2.5029,2.5039,2.5015,2.5029,2.5027,2.5014,2.501,2.5006,2.5006,2.5057,0,0,0,0,0,2.5003,2.4999,2.501,2.4996,2.4998,2.5008,2.5006,2.5015,2.5017,2.5017,2.5021,2.5021,2.5017,2.5014,2.501,2.4992,2.4993,2.4983,2.498,2.4977,2.4975,2.4966,2.4962,2.5006,2.5007,2.5007,0,0,2.4987,2.4993,2.499,2.4991,2.4994,2.4989,2.5009,2.5002,2.4998,2.5016,2.5005,2.5008,2.501,2.4995,2.4989,2.4996,2.4963,2.4975,2.4973,2.4972,2.4964,2.496,2.4956,2.5005,2.5005,2.5006,0,0,2.4956,2.4961,2.4951,2.4954,2.4959,2.4967,2.4964,2.4971,2.4975,2.4965,2.4978,2.4973,2.4965,2.4966,2.4965,2.4937,2.4946,2.4936,2.4917,2.4909,2.4905,2.4902,2.4892,2.4888,2.4933,2.4933,2.4933,0,2.4935,2.493,2.4944,2.4938,2.4938,2.4956,2.4946,2.4947,2.495,2.4949,2.4958,2.4949,2.4951,2.4938,2.4931,2.493,2.4927,2.4935,2.4905,2.4902,2.4899,2.489,2.4886,2.4932,2.4932,2.4932,2.4932,0,2.4904,2.49,2.4892,2.4896,2.4896,2.4887,2.4899,2.4897,2.4905,2.4912,2.4902,2.4906,2.4903,2.4901,2.4908,2.4889,2.4893,2.4903,2.4917,2.4893,2.4885,2.4881,2.493,2.4931,2.4931,2.4931,0,0,2.4854,2.4869,2.4865,2.4868,2.4876,2.4873,2.4865,2.4865,2.4863,2.4864,2.4858,2.4852,2.4862,2.4861,2.4869,2.4862,2.484,2.4873,2.4873,2.4866,2.4818,2.481,2.4805,2.4846,2.4846,2.4845,2.4818,0,2.4825,2.4814,2.4828,2.4814,2.481,2.4829,2.4822,2.4826,2.4832,2.4829,2.4835,2.4831,2.4845,2.4844,2.4838,2.4844,2.483,2.4846,2.4839,2.4839,2.4838,2.4801,2.4792,2.4766,2.4814,2.4814,2.4813,0,2.4789,2.4791,2.4777,2.4788,2.4787,2.4781,2.4782,2.478,2.4784,2.4789,2.479,2.48,2.4793,2.4808,2.4798,2.4809,2.4807,2.4809,2.4809,2.4807,2.4824,2.4798,2.4758,2.4753,2.4808,2.4809,2.4809,0,2.4753,2.4753,2.4745,2.4747,2.4759,2.4754,2.4759,2.4764,2.4764,2.4765,2.4765,2.4764,2.4764,2.4763,2.4773,2.4783,2.4761,2.4777,2.4764,2.4764,2.4757,2.4757,2.4715,2.4758,2.4758,2.4758,2.4758,0,2.4719,2.4709,2.473,2.4725,2.4715,2.4731,2.472,2.4726,2.4732,2.4727,2.4743,2.4738,2.4752,2.4749,2.4757,2.4747,2.4746,2.475,2.4752,2.4748,2.4747,2.4746,2.4748,2.4757,2.4757,2.4757,2.4757,0,2.4677,2.469,2.4683,2.4696,2.4699,2.4691,2.4701,2.4697,2.4705,2.47,2.4699,2.4711,2.4709,2.4719,2.4717,2.4723,2.4708,2.4714,2.4707,2.4709,2.4695,2.4696,2.465,2.4645,2.4691,2.469,2.469,0,2.4653,2.4647,2.466,2.4659,2.4664,2.4662,2.4662,2.4678,2.4677,2.4683,2.4678,2.4677,2.4677,2.4671,2.4679,2.4678,2.4683,2.4667,2.4683,2.4679,2.4682,2.4682,2.4682,2.4663,2.4663,2.4662,2.4662,0,2.461,2.4618,2.4619,2.4622,2.4623,2.4626,2.463,2.4628,2.4645,2.4643,2.4642,2.4642,2.4642,2.464,2.4641,2.4645,2.4655,2.4657,2.4654,2.465,2.4646,2.4648,2.4698,2.4658,2.4658,2.4658,2.4659,2.4659,2.4576,2.4572,2.4581,2.4582,2.4587,2.4591,2.4588,2.4597,2.4596,2.4599,2.4608,2.4604,2.461,2.4613,2.4616,2.4613,2.462,2.4615,2.4614,2.4613,2.461,2.4648,2.4613,2.4613,2.4613,2.4613,2.4613,0,2.4534,2.4541,2.4542,2.4548,2.4549,2.4562,2.4567,2.4566,2.4564,2.4569,2.457,2.4568,2.4568,2.4577,2.4577,2.4573,2.4578,2.4572,2.4572,2.4573,2.4604,2.4606,2.4568,2.4568,2.4568,2.4568,2.4568,2.4568,2.4511,2.4505,2.4514,2.4511,2.4518,2.4516,2.4518,2.4522,2.4526,2.4525,2.4525,2.4532,2.4538,2.454,2.4539,2.4542,2.4541,2.4533,2.4538,2.4566,2.457,2.4575,2.4577,2.4533,2.4533,2.4507,2.4506,2.4506]}]]